Location: Newark
(46.8500°N, 5.1667°E)
Time: 02:57:55
(UTC+00:00)

ISS - Pass Details

Date: 25 September 2019
Orbit: 411 x 421 km, 51.6° (Epoch: 16 October)

Event Time Altitude Azimuth Distance (km) Brightness Sun altitude
Rises 20:10:06 0° 284° (WNW) 2,344 1.2 -26.7°
Reaches altitude 10° 20:12:19 10° 294° (WNW) 1,482 0.0 -27.1°
Enters shadow 20:13:50 22° 311° (NW) 967 -1.2 -27.3°
